This demonstration page uses our WeatherBlox Daily Observations layout. Learn more.

Left ArrowRight Arrow

39.01783, -85.05884

Hourly Observations for March 9, 2017

Temp ( °F °C ) Dew Point ( °F °C ) Humidity (%) Winds ( mph kmh ) Pressure ( in mb ) Visibility ( mi km ) Precip ( " mm )
12:52 am 00:52 Clear 43 6.1 22 -5.6 43 43 SSW 6 9 30.19 1022 10 16 0.00 0.00
1:52 am 01:52 Clear 43 6.1 23 -5 45 45 SSW 7 11 30.18 1022 10 16 0.00 0.00
2:52 am 02:52 Clear 39 3.9 24 -4.4 55 55 SSW 7 11 30.17 1022 10 16 0.00 0.00
3:52 am 03:52 Clear 41 5 23 -5 49 49 SSW 7 11 30.16 1021 10 16 0.00 0.00
4:52 am 04:52 Clear 39 3.9 24 -4.4 55 55 SSW 8 13 30.15 1021 10 16 0.00 0.00
5:52 am 05:52 Clear 38 3.3 24 -4.4 57 57 SSW 6 9 30.15 1021 10 16 0.00 0.00
6:52 am 06:52 Clear 41 5 24 -4.4 51 51 Calm 30.17 1022 10 16 0.00 0.00
7:52 am 07:52 Sunny 36 2.2 29 -1.7 76 76 S 7 11 30.16 1021 10 16 0.00 0.00
8:52 am 08:52 Sunny 49 9.4 29 -1.7 46 46 SW 7 11 30.15 1021 10 16 0.00 0.00
9:52 am 09:52 Mostly Sunny 54 12.2 29 -1.7 38 38 SW 12 19 30.15 1021 10 16 0.00 0.00
10:52 am 10:52 Mostly Sunny 57 13.9 31 -0.6 37 37 VRB 7 11 30.14 1021 10 16 0.00 0.00
11:52 am 11:52 Mostly Sunny 61 16.1 32 0 34 34 WSW 8 13 30.11 1020 10 16 0.00 0.00
12:52 pm 12:52 Sunny 65 18.3 32 0 29 29 VRB 7 11 30.08 1019 10 16 0.00 0.00
1:52 pm 13:52 Sunny 67 19.4 31 -0.6 26 26 W 10 17 30.04 1017 10 16 0.00 0.00
2:52 pm 14:52 Partly Cloudy 69 20.6 32 0 25 25 WSW 10 17 29.99 1016 10 16 0.00 0.00
3:52 pm 15:52 Mostly Cloudy 69 20.6 33 0.6 26 26 SW 16 26 29.96 1015 10 16 0.00 0.00
4:52 pm 16:52 Mostly Cloudy 68 20 33 0.6 27 27 WSW 13 20 29.96 1014 10 16 0.00 0.00
5:52 pm 17:52 Mostly Cloudy 67 19.4 34 1.1 30 30 SW 8 13 29.93 1013 10 16 0.00 0.00
6:52 pm 18:52 Cloudy 65 18.3 35 1.7 33 33 WSW 5 7 29.93 1014 10 16 0.00 0.00
7:52 pm 19:52 Cloudy 60 15.6 38 3.3 44 44 N 13 20 29.94 1014 10 16 0.00 0.00
8:52 pm 20:52 Cloudy 55 12.8 35 1.7 47 47 N 12 19 29.98 1015 10 16 0.00 0.00
9:52 pm 21:52 Cloudy 53 11.7 30 -1.1 41 41 N 16 26 29.96 1015 10 16 0.00 0.03
10:52 pm 22:52 Cloudy with Light Rain 45 7.2 35 1.7 68 68 NNE 18 30 30.01 1016 10 16 0.00 0.03
11:52 pm 23:52 Cloudy with Rain 42 5.6 36 2.2 79 79 N 17 28 29.99 1016 7 11 0.04 1.02

Powered by AerisWeather